This demonstration page uses our WeatherBlox Daily Observations layout. Learn more.

41.55636, -103.73856

Hourly Observations for July 18, 2019

Temp ( °F °C ) Dew Point ( °F °C ) Humidity (%) Winds ( mph kmh ) Pressure ( in mb ) Visibility ( mi km ) Precip ( " mm )
12:53 am 00:53 Clear 70 21 N/A N/A undefined N/A 29.68 1005 10 16.09344 0 0
1:53 am 01:53 Clear 66 19 N/A N/A Calm 29.68 1005 10 16.09344 0 0
2:53 am 02:53 Clear 64 18 N/A N/A NNW 7 11 29.68 1005 10 16.09344 0 0
3:53 am 03:53 Clear 63 17 N/A N/A N 6 9 29.68 1005 10 16.09344 0 0
4:53 am 04:53 Clear 63 17 N/A N/A NW 7 11 29.71 1006 10 16.09344 0 0
5:53 am 05:53 Sunny 61 16 N/A N/A WNW 7 11 29.71 1006 10 16.09344 0 0
6:53 am 06:53 Sunny 64 18 N/A N/A NNW 8 13 29.71 1006 10 16.09344 0 0
7:53 am 07:53 Sunny 72 22 N/A N/A WNW 5 7 29.71 1006 10 16.09344 0 0
8:53 am 08:53 Sunny 77 25 N/A N/A WNW 7 11 29.71 1006 10 16.09344 0 0
9:05 am 09:05 Partly Cloudy 79 26 N/A N/A NW 7 11 29.62 1003 10 16.09344 0 0
9:53 am 09:53 Sunny 81 27 N/A N/A NNW 8 13 29.71 1006 10 16.09344 0 0
10:53 am 10:53 Sunny 88 31 N/A N/A WNW 6 9 29.71 1006 10 16.09344 0 0
11:53 am 11:53 Sunny 91 33 N/A N/A WNW 6 9 29.68 1005 10 16.09344 0 0
1:53 pm 13:53 Sunny 99 37.2 46 7.8 16 16 W 10 17 29.62 1003 10 16.09344 0 0
2:53 pm 14:53 Sunny 101 38.3 44 6.7 14 14 WNW 9 15 29.59 1002 10 16.09344 0 0
3:53 pm 15:53 Sunny 102 38.9 42 5.6 13 13 W 9 15 29.59 1002 10 16.09344 0 0
4:53 pm 16:53 Sunny 101 38.3 44 6.7 14 14 W 13 20 29.59 1002 10 16.09344 0 0
5:53 pm 17:53 Sunny 99 37.2 47 8.3 17 17 W 12 19 29.56 1001 10 16.09344 0 0
6:53 pm 18:53 Sunny 94 34.4 52 11.1 24 24 WSW 7 11 29.59 1002 10 16.09344 0 0
7:53 pm 19:53 Sunny 87 30.6 60 15.6 40 40 S 5 7 29.59 1002 10 16.09344 0 0
8:53 pm 20:53 Clear 81 27.2 56 13.3 42 42 SSE 6 9 29.59 1002 10 16.09344 0 0
9:53 pm 21:53 Clear 78 25.6 55 12.8 45 45 SE 8 13 29.62 1003 10 16.09344 0 0
10:53 pm 22:53 Clear 70 21.1 58 14.4 66 66 NE 6 9 29.62 1003 10 16.09344 0 0
11:53 pm 23:53 Clear 64 17.8 58 14.4 81 81 N 6 9 29.62 1003 10 16.09344 0 0

Powered by AerisWeather